Terminal Aerodrome Forecast
Issued by NWS

Home | Current Version | Previous Version | Graphics & Text | Print | Product List | Glossary On
Versions: 1 2 3 4 5 6 7 8 9 10 11 12 13 14
000
FTUS43 KTOP 161700
TAFFOE
TAF
KFOE 161720Z 1618/1718 19031G40KT P6SM BKN180
     FM162200 21017G24KT P6SM SCT150
     FM170100 31012KT P6SM BKN120
     FM170700 35006KT P6SM BKN080=

USA.gov is the U.S. government's official web portal to all federal, state and local government web resources and services.